Flag for Colombia Weather past 2 weeks in Cartagena, Colombia

Now
81 °F

Passing clouds.


Feels Like: 87 °F
Forecast: 80 / 88 °F
Wind: No wind

Location: Cartagena / Rafael Nunez

Current Time: Sep 3, 2014 at 3:29:03 AM

Latest Report: Sep 3, 2014 at 3:00 AM


Visibility: N/A

Pressure: 29.75 "Hg

Humidity: 89%

Dew point: 77 °F

Location of CartagenaLocation

Historic Weather in Cartagena — Graph

°F

Cartagena temperature yesterday

Maximum temperature yesterday: 91 °F (at 12:00 PM)
Minimum temperature yesterday: 75 °F (at 7:00 PM)
Average temperature yesterday: 85 °F

Past Weeks' High & Low Weather Summary

 TemperatureHumidityPressure
High102 °F (Aug 21, 8:00 AM)100% (Aug 24, 2:00 AM)30.72 "Hg (Aug 24, 2:00 AM)
Low75 °F (Sep 2, 7:00 PM)42% (Aug 21, 8:00 AM)29.71 "Hg (Sep 1, 4:00 PM)
Average84 °F79%29.83 "Hg
* Reported Aug 19 2:00 AM — Sep 3 2:00 AM, Cartagena, Weather by CustomWeather, © 2014

Note: Actual official high and low records may vary slightly from our data, if they occured in-between our weather recording intervals... More about our weather records

Advertising

Cartagena weather history for previous 24 hours

 ConditionsComfort  
Time TempWeatherWind HumidityBarometerVisibility
2:00 AM
Sep 3
81 °FPartly cloudy.No wind89%29.87 "HgN/A
1:00 AM81 °FPassing clouds.No wind89%29.78 "HgN/A
12:00 AM79 °FPassing clouds.No wind89%29.80 "HgN/A
11:00 PM
Sep 2
77 °FPassing clouds.No wind89%29.80 "HgN/A
10:00 PM77 °FOvercast.No wind94%29.81 "HgN/A
9:00 PM77 °FDrizzle. Mostly cloudy.2 mph94%29.80 "HgN/A
8:00 PM81 °FThunderstorms. Overcast.5 mph79%29.77 "HgN/A
7:00 PM75 °FThunderstorms. Mostly cloudy.6 mph94%29.79 "Hg4 mi
6:00 PM86 °FThunderstorms. Scattered clouds.6 mph84%29.76 "HgN/A
5:00 PM88 °FScattered clouds.12 mph75%29.74 "HgN/A
4:00 PM90 °FPartly sunny.9 mph71%29.74 "HgN/A
3:00 PM90 °FBroken clouds.10 mph71%29.74 "HgN/A
2:00 PM91 °FBroken clouds.10 mph67%29.76 "HgN/A
1:00 PM91 °FBroken clouds.12 mph67%29.79 "HgN/A
12:00 PM91 °FOvercast.9 mph63%29.81 "HgN/A
11:00 AM90 °FPartly sunny.10 mph59%29.82 "HgN/A
10:00 AM90 °FPartly sunny.9 mph71%29.84 "HgN/A
9:00 AM88 °FOvercast.3 mph75%29.83 "Hg6 mi
8:00 AM86 °FPartly sunny.2 mph79%29.76 "Hg5 mi
7:00 AM82 °FBroken clouds.No wind89%29.73 "Hg6 mi
6:00 AM82 °FScattered clouds.5 mph89%29.72 "HgN/A
5:00 AM82 °FPassing clouds.5 mph89%29.72 "HgN/A
4:00 AM82 °FPassing clouds.5 mph89%29.71 "HgN/A
3:00 AM82 °FPassing clouds.5 mph89%29.72 "HgN/A
Weather by CustomWeather, © 2014

See weather overviewHow to use our weather pages